Date String (YYYY-MM-DD hh:mm:ss) UTC,Instrument flags,Ambient pressure (hPa),Sample flow (lpm),Bypass flow (lpm),Sample temperature (°C),Ambient temperature (°C),ASC tube jacket temperature (°C),LED temperature (°C),Box temperature (°C),Sample RH (%),Span deviation,Mass concentration (μg/m³),Mass concentration (μg/m³),Mass concentration (μg/m³)
DateTimeUTC,F1_M11,P_M11,Q1_M11,Q2_M11,T1_M11,T2_M11,T3_M11,T4_M11,T5_M11,U1_M11,ZSPAN_M11,X0_M11,X2_M11,X1_M11
2022-09-13 03:00:00,,0826.8,5.01,0.00,29.9,28.5,00.0,38.7,31.7,11.2,0002.3,0016.95,0009.47,0008.79
2022-09-13 03:01:00,,0827.0,4.98,0.00,29.9,28.6,00.0,38.7,31.8,11.1,0003.0,0016.24,0009.49,0008.79
2022-09-13 03:02:00,,0827.1,5.00,0.00,30.0,28.6,00.0,38.7,31.9,11.1,0003.2,0016.23,0009.45,0008.79
2022-09-13 03:03:00,,0826.9,5.00,0.00,30.0,28.7,00.0,38.7,31.9,11.1,0003.3,0015.15,0009.46,0008.81
2022-09-13 03:04:00,,0827.2,5.00,0.00,30.0,28.8,00.0,38.7,31.9,11.0,0002.9,0014.81,0009.49,0008.83
2022-09-13 03:05:00,,0826.9,5.00,0.00,30.0,28.8,00.0,38.8,32.0,11.0,0002.5,0015.11,0009.48,0008.85
2022-09-13 03:06:00,,0827.0,5.00,0.00,30.1,28.9,00.0,38.8,32.0,11.0,0002.5,0015.04,0009.46,0008.88
2022-09-13 03:07:00,,0826.9,4.99,0.00,30.1,28.9,00.0,38.8,32.0,11.1,0002.5,0014.85,0009.44,0008.90
2022-09-13 03:08:00,,0826.8,4.99,0.00,30.1,29.0,00.0,38.8,32.0,11.0,0002.0,0015.23,0009.49,0008.93
2022-09-13 03:09:00,,0826.9,5.00,0.00,30.1,29.0,00.0,38.8,32.0,11.0,0001.3,0015.09,0009.51,0008.98
2022-09-13 03:10:00,,0826.9,5.00,0.00,30.2,29.0,00.0,38.9,32.1,11.0,0001.3,0015.15,0009.56,0009.02
2022-09-13 03:11:00,,0826.9,5.01,0.00,30.2,29.1,00.0,38.9,32.1,10.9,0001.0,0015.45,0009.65,0009.06
2022-09-13 03:12:00,,0826.9,4.98,0.00,30.2,29.1,00.0,38.9,32.1,11.0,0000.7,0015.65,0009.69,0009.11
2022-09-13 03:13:00,,0826.9,5.00,0.00,30.2,27.9,00.0,38.9,32.1,10.9,0000.4,0015.71,0009.76,0009.16
2022-09-13 03:14:00,,0826.9,5.01,0.00,30.2,26.9,00.0,38.8,32.0,10.9,0000.2,0015.68,0009.81,0009.19
2022-09-13 03:15:00,,0826.9,4.99,0.00,30.1,26.9,00.0,38.8,31.9,11.0,0000.1,0015.25,0009.84,0009.21
2022-09-13 03:16:00,,0827.0,5.00,0.00,30.0,27.1,00.0,38.7,31.7,11.0,0000.4,0014.93,0009.89,0009.23
2022-09-13 03:17:00,,0826.9,5.01,0.00,30.0,27.4,00.0,38.7,31.7,11.1,0000.6,0014.66,0009.88,0009.22
2022-09-13 03:18:00,,0827.4,5.00,0.00,30.0,27.7,00.0,38.7,31.7,11.2,0001.3,0014.70,0009.89,0009.22
2022-09-13 03:19:00,,0827.3,5.00,0.00,29.9,27.9,00.0,38.7,31.7,11.1,0002.0,0014.27,0009.87,0009.22
2022-09-13 03:20:00,,0827.2,5.00,0.00,29.9,28.1,00.0,38.7,31.7,11.2,0002.0,0014.07,0009.89,0009.20
2022-09-13 03:21:00,,0827.1,5.00,0.00,29.9,28.2,00.0,38.7,31.8,11.2,0002.1,0014.12,0009.86,0009.20
2022-09-13 03:22:00,,0827.0,5.01,0.00,29.9,28.4,00.0,38.7,31.8,11.2,0002.7,0014.80,0009.79,0009.19
2022-09-13 03:23:00,,0827.0,4.98,0.00,30.0,28.5,00.0,38.7,31.8,11.2,0003.0,0014.67,0009.76,0009.18
2022-09-13 03:24:00,,0826.9,5.00,0.00,30.0,28.5,00.0,38.7,31.8,11.2,0003.3,0014.61,0009.74,0009.17
2022-09-13 03:25:00,,0827.2,5.00,0.00,30.0,28.6,00.0,38.7,31.9,11.2,0003.2,0014.80,0009.74,0009.16
2022-09-13 03:26:00,,0827.1,5.00,0.00,30.0,28.7,00.0,38.7,31.9,11.2,0003.4,0015.08,0009.68,0009.13
2022-09-13 03:27:00,,0827.2,5.01,0.00,30.0,28.7,00.0,38.8,31.9,11.3,0003.6,0015.33,0009.68,0009.13
2022-09-13 03:28:00,,0827.0,5.00,0.00,30.0,28.8,00.0,38.8,31.9,11.2,0004.0,0015.55,0009.70,0009.13
2022-09-13 03:29:00,,0826.9,4.99,0.00,30.1,28.8,00.0,38.8,32.0,11.2,0002.7,0016.04,0009.72,0009.13
2022-09-13 03:30:00,,0826.9,5.00,0.00,30.1,28.9,00.0,38.8,32.0,11.3,0001.5,0015.96,0009.70,0009.12
2022-09-13 03:31:00,,0827.0,5.00,0.00,30.1,28.9,00.0,38.8,32.0,11.2,0001.3,0015.88,0009.69,0009.12
2022-09-13 03:32:00,,0826.9,5.00,0.00,30.1,28.9,00.0,38.8,32.0,11.1,0000.9,0015.94,0009.71,0009.14
2022-09-13 03:33:00,,0826.8,5.00,0.00,30.2,29.0,00.0,38.8,32.0,11.2,0000.9,0015.06,0009.72,0009.15
2022-09-13 03:34:00,,0826.8,5.00,0.00,30.2,29.0,00.0,38.9,32.0,11.1,0001.2,0015.53,0009.72,0009.14
2022-09-13 03:35:00,,0827.0,5.01,0.00,30.2,29.0,00.0,38.9,32.1,11.1,0001.2,0015.79,0009.70,0009.11
2022-09-13 03:36:00,,0826.8,5.00,0.00,30.2,29.0,00.0,38.9,32.1,11.0,0001.0,0015.92,0009.68,0009.09
2022-09-13 03:37:00,,0826.8,5.00,0.00,30.2,29.0,00.0,38.9,32.1,10.9,0001.6,0015.72,0009.67,0009.06
2022-09-13 03:38:00,,0826.8,5.00,0.00,30.2,29.0,00.0,38.9,32.1,11.0,0001.0,0015.37,0009.63,0009.04
2022-09-13 03:39:00,,0826.8,5.00,0.00,30.3,29.0,00.0,39.0,32.1,10.9,0000.6,0015.22,0009.59,0009.02
2022-09-13 03:40:00,,0826.8,4.98,0.00,30.3,28.9,00.0,39.0,32.1,10.8,0000.7,0015.01,0009.57,0009.01
2022-09-13 03:41:00,,0826.7,5.00,0.00,30.3,27.5,00.0,38.9,32.1,10.9,0001.1,0015.00,0009.55,0009.01
2022-09-13 03:42:00,,0826.8,5.01,0.00,30.2,26.9,00.0,38.9,32.0,10.9,0001.4,0015.02,0009.54,0008.99
2022-09-13 03:43:00,,0826.8,4.99,0.00,30.2,26.9,00.0,38.8,31.8,10.9,0001.4,0014.98,0009.54,0008.98
2022-09-13 03:44:00,,0826.8,5.00,0.00,30.1,27.2,00.0,38.8,31.7,11.0,0000.8,0015.10,0009.56,0008.97
2022-09-13 03:45:00,,0826.8,5.00,0.00,30.0,27.5,00.0,38.8,31.7,11.0,0000.4,0015.02,0009.56,0008.96
2022-09-13 03:46:00,,0826.8,4.99,0.00,30.0,27.7,00.0,38.8,31.7,11.0,0000.2,0014.74,0009.58,0008.97
2022-09-13 03:47:00,,0826.8,5.01,0.00,30.0,27.9,00.0,38.8,31.7,11.0,0000.5,0014.41,0009.57,0008.97
2022-09-13 03:48:00,,0826.8,5.00,0.00,30.0,28.1,00.0,38.8,31.8,11.0,-000.0,0014.53,0009.59,0008.98
2022-09-13 03:49:00,,0826.8,5.01,0.00,30.0,28.3,00.0,38.8,31.7,11.0,0000.1,0014.71,0009.62,0008.98
2022-09-13 03:50:00,,0826.9,4.99,0.00,30.0,28.4,00.0,38.8,31.8,11.0,0000.1,0014.89,0009.67,0009.00
2022-09-13 03:51:00,,0826.8,5.00,0.00,30.0,28.4,00.0,38.8,31.8,10.9,0000.9,0014.63,0009.66,0008.99
2022-09-13 03:52:00,,0826.8,5.00,0.00,30.0,28.5,00.0,38.8,31.8,11.0,0001.1,0014.53,0009.64,0008.97
2022-09-13 03:53:00,,0826.8,5.01,0.00,30.0,28.6,00.0,38.8,31.9,10.9,0001.4,0015.38,0009.63,0008.96
2022-09-13 03:54:00,,0826.8,5.00,0.00,30.0,28.7,00.0,38.8,31.9,10.9,0002.0,0015.36,0009.60,0008.95
2022-09-13 03:55:00,,0826.8,5.01,0.00,30.0,28.7,00.0,38.8,31.9,10.9,0002.2,0015.71,0009.59,0008.95
2022-09-13 03:56:00,,0826.8,4.99,0.00,30.0,28.8,00.0,38.8,31.9,10.9,0001.8,0015.44,0009.59,0008.96
2022-09-13 03:57:00,,0826.8,5.00,0.00,30.1,28.8,00.0,38.8,31.9,10.9,0001.9,0015.84,0009.58,0008.96
2022-09-13 03:58:00,,0826.8,5.01,0.00,30.1,28.8,00.0,38.8,32.0,10.9,0002.4,0015.92,0009.63,0008.97
2022-09-13 03:59:00,,0826.8,5.01,0.00,30.1,28.8,00.0,38.8,32.0,11.0,0002.2,0016.19,0009.63,0009.00
